KJ7HSW Weather Reports


time (UTC)temp
F
wind
direction
speed
knots
gust
knots
rain 1hr
in
rain 24hr
in
rain mn
in
humidity
%
barometer
mb
20260504192139 81 235 7.0 8.7 0.00 0.00 0.00 32 1009.4
20260504191637 81 206 1.7 5.2 0.00 0.00 0.00 31 1009.4
20260504191133 81 252 1.7 7.8 0.00 0.00 0.00 32 1009.5
20260504190629 81 255 3.5 5.2 0.00 0.00 0.00 31 1009.4
20260504190126 81 326 2.6 6.1 0.00 0.00 0.00 32 1009.5
20260504185622 80 228 3.5 7.0 0.00 0.00 0.00 31 1009.4
20260504185119 81 146 0.0 7.8 0.00 0.00 0.00 32 1009.5
20260504184615 81 170 2.6 4.3 0.00 0.00 0.00 32 1009.6
20260504184110 79 194 2.6 3.5 0.00 0.00 0.00 33 1009.6
20260504183607 80 248 8.7 11.3 0.00 0.00 0.00 33 1009.7
20260504183105 79 152 2.6 4.3 0.00 0.00 0.00 33 1009.6
20260504182602 78 171 1.7 9.6 0.00 0.00 0.00 33 1009.5
20260504182059 79 291 1.7 4.3 0.00 0.00 0.00 36 1009.6
20260504181556 79 184 2.6 4.3 0.00 0.00 0.00 34 1009.6
20260504181054 78 267 2.6 6.1 0.00 0.00 0.00 33 1009.5
20260504180553 78 137 2.6 7.8 0.00 0.00 0.00 33 1009.6
20260504180052 78 268 2.6 3.5 0.00 0.00 0.00 36 1009.7
20260504175548 78 209 0.9 4.3 0.00 0.00 0.00 33 1009.4
20260504175045 77 291 3.5 6.1 0.00 0.00 0.00 37 1009.3
20260504174543 78 261 1.7 6.1 0.00 0.00 0.00 39 1009.6
20260504174040 77 192 2.6 4.3 0.00 0.00 0.00 34 1009.6
20260504173537 76 299 1.7 3.5 0.00 0.00 0.00 39 1009.8
20260504173034 77 222 2.6 4.3 0.00 0.00 0.00 40 1009.8
20260504172530 76 229 5.2 6.1 0.00 0.00 0.00 43 1009.8
20260504172027 75 183 4.3 5.2 0.00 0.00 0.00 41 1009.9
20260504171524 75 237 2.6 4.3 0.00 0.00 0.00 43 1010.0
20260504171021 75 234 4.3 4.3 0.00 0.00 0.00 43 1010.2
20260504170516 73 218 2.6 3.5 0.00 0.00 0.00 46 1010.2
20260504160437 69 230 3.5 3.5 0.00 0.00 0.00 50 1010.3
20260504150900 52 239 1.7 2.6 0.00 0.00 0.00 87 1010.7
20260504150358 51 236 1.7 3.5 0.00 0.00 0.00 89 1010.8
20260504141327 47 255 0.0 1.7 0.00 0.00 0.00 92 1010.6
20260504140824 47 254 2.6 2.6 0.00 0.00 0.00 92 1010.6
20260504140319 47 230 1.7 2.6 0.00 0.00 0.00 92 1010.5
20260504130748 47 256 0.0 1.7 0.00 0.00 0.00 92 1010.3
20260504130244 47 240 2.6 2.6 0.00 0.00 0.00 93 1010.2
20260504120208 48 186 1.7 3.5 0.00 0.00 0.00 91 1010.2
20260504110635 49 264 1.7 1.7 0.00 0.00 0.00 88 1010.4
20260504110131 49 276 2.6 3.5 0.00 0.00 0.00 89 1010.2
20260504100557 50 212 2.6 2.6 0.00 0.00 0.00 86 1010.3
20260504081950 54 190 1.7 5.2 0.00 0.00 0.00 78 1010.1
20260504081448 54 178 2.6 4.3 0.00 0.00 0.00 78 1010.2
20260504080943 55 230 1.7 2.6 0.00 0.00 0.00 77 1010.2
20260504080441 55 230 1.7 2.6 0.00 0.00 0.00 77 1010.2
20260504070408 58 212 2.6 4.3 0.00 0.00 0.00 69 1010.0
20260504050253 60 206 2.6 3.5 0.00 0.00 0.00 71 1010.4
20260504045750 60 198 2.6 2.6 0.00 0.00 0.00 71 1010.3
20260504045245 60 214 2.6 3.5 0.00 0.00 0.00 70 1010.4
20260504044743 61 180 2.6 4.3 0.00 0.00 0.00 67 1010.3
20260504044240 61 192 2.6 4.3 0.00 0.00 0.00 68 1010.1
20260504043737 61 212 3.5 4.3 0.00 0.00 0.00 67 1010.3
20260504043234 61 218 3.5 4.3 0.00 0.00 0.00 67 1010.3
20260504042732 61 203 2.6 3.5 0.00 0.00 0.00 66 1010.2
20260504042228 62 196 2.6 3.5 0.00 0.00 0.00 65 1010.2
20260504041724 62 220 3.5 3.5 0.00 0.00 0.00 64 1010.3
20260504041220 62 225 2.6 3.5 0.00 0.00 0.00 65 1010.1
20260504040716 62 228 2.6 3.5 0.00 0.00 0.00 65 1010.2
20260504040214 63 233 2.6 3.5 0.00 0.00 0.00 64 1010.2
20260504035710 63 219 2.6 3.5 0.00 0.00 0.00 65 1010.1
20260504035208 63 234 2.6 3.5 0.00 0.00 0.00 66 1010.1
20260504034705 63 241 2.6 2.6 0.00 0.00 0.00 67 1010.1
20260504034202 64 239 2.6 2.6 0.00 0.00 0.00 65 1009.8
20260504033659 64 241 1.7 1.7 0.00 0.00 0.00 66 1009.8
20260504033156 64 247 1.7 2.6 0.00 0.00 0.00 62 1010.0
20260504032653 65 258 2.6 3.5 0.00 0.00 0.00 62 1010.0
20260504032150 65 252 2.6 2.6 0.00 0.00 0.00 64 1009.8
20260504031647 66 238 2.6 2.6 0.00 0.00 0.00 62 1009.8
20260504031144 66 272 2.6 2.6 0.00 0.00 0.00 63 1009.6
20260504030640 67 251 2.6 3.5 0.00 0.00 0.00 64 1009.7
20260504030137 67 236 2.6 2.6 0.00 0.00 0.00 62 1009.8
20260504025634 68 251 2.6 2.6 0.00 0.00 0.00 60 1009.6
20260504025131 68 259 2.6 2.6 0.00 0.00 0.00 58 1009.6
20260504024628 69 265 1.7 2.6 0.00 0.00 0.00 57 1009.6
20260504024125 69 236 3.5 4.3 0.00 0.00 0.00 55 1009.6
20260504023621 69 229 2.6 2.6 0.00 0.00 0.00 53 1009.6
20260504023117 70 237 3.5 3.5 0.00 0.00 0.00 53 1009.6
20260504022614 70 249 3.5 3.5 0.00 0.00 0.00 53 1009.6
20260504022110 71 246 3.5 3.5 0.00 0.00 0.00 52 1009.6
20260504021608 71 243 4.3 4.3 0.00 0.00 0.00 49 1009.6
20260504021104 72 238 3.5 3.5 0.00 0.00 0.00 48 1009.7
20260504020601 72 253 3.5 4.3 0.00 0.00 0.00 48 1009.7
20260504020057 73 238 3.5 4.3 0.00 0.00 0.00 46 1009.7
20260504015554 74 246 3.5 5.2 0.00 0.00 0.00 45 1009.6
20260504015050 75 239 3.5 5.2 0.00 0.00 0.00 44 1009.6
20260504014546 77 256 4.3 5.2 0.00 0.00 0.00 43 1009.7
20260504014044 77 222 7.8 7.8 0.00 0.00 0.00 34 1009.7
20260504013541 78 292 2.6 6.1 0.00 0.00 0.00 43 1009.8
20260504013038 77 276 2.6 4.3 0.00 0.00 0.00 35 1009.6
20260504012536 77 256 2.6 3.5 0.00 0.00 0.00 43 1009.6
20260504012033 78 274 3.5 7.0 0.00 0.00 0.00 38 1009.7
20260504011530 79 275 2.6 6.1 0.00 0.00 0.00 41 1009.9
20260504011026 79 261 2.6 4.3 0.00 0.00 0.00 39 1009.9
20260504010522 79 266 2.6 5.2 0.00 0.00 0.00 37 1009.8
20260504010018 79 300 3.5 3.5 0.00 0.00 0.00 38 1010.0
20260504005515 80 249 2.6 3.5 0.00 0.00 0.00 36 1010.0
20260504005012 80 255 2.6 6.1 0.00 0.00 0.00 36 1009.9
20260504004510 80 262 3.5 4.3 0.00 0.00 0.00 33 1010.0
20260504004007 80 294 1.7 3.5 0.00 0.00 0.00 35 1010.0
20260504003503 81 241 4.3 4.3 0.00 0.00 0.00 35 1010.0
20260504003000 81 259 2.6 4.3 0.00 0.00 0.00 37 1010.2
20260504002456 81 273 2.6 2.6 0.00 0.00 0.00 35 1010.1
20260504001954 82 254 3.5 3.5 0.00 0.00 0.00 32 1010.1
20260504001451 82 276 3.5 5.2 0.00 0.00 0.00 31 1010.2
20260504000948 83 240 4.3 4.3 0.00 0.00 0.00 33 1010.2
20260504000445 83 212 2.6 2.6 0.00 0.00 0.00 32 1010.4
20260503235942 83 281 2.6 4.3 0.00 0.00 0.00 33 1010.3
20260503235440 85 242 2.6 3.5 0.00 0.00 0.00 32 1010.4
20260503234937 85 262 2.6 5.2 0.00 0.00 0.00 29 1010.4
20260503234435 85 283 3.5 4.3 0.00 0.00 0.00 32 1010.5
20260503233933 85 253 2.6 3.5 0.00 0.00 0.00 30 1010.4
20260503233429 85 221 1.7 4.3 0.00 0.00 0.00 31 1010.7
20260503232925 85 282 3.5 7.0 0.00 0.00 0.00 34 1010.3
20260503232422 85 275 3.5 4.3 0.00 0.00 0.00 34 1010.4
20260503231920 85 195 3.5 6.1 0.00 0.00 0.00 31 1010.6
20260503231417 85 301 3.5 4.3 0.00 0.00 0.00 34 1010.6
20260503230913 85 278 2.6 4.3 0.00 0.00 0.00 34 1010.8
20260503230410 85 304 3.5 6.1 0.00 0.00 0.00 31 1010.8
20260503225908 85 270 1.7 3.5 0.00 0.00 0.00 31 1010.9
20260503225404 85 263 3.5 4.3 0.00 0.00 0.00 31 1010.9
20260503224900 85 240 2.6 4.3 0.00 0.00 0.00 30 1011.1
20260503224357 86 228 3.5 6.1 0.00 0.00 0.00 30 1011.1
20260503223855 85 250 2.6 5.2 0.00 0.00 0.00 30 1011.2
20260503223353 85 180 2.6 7.8 0.00 0.00 0.00 28 1011.0
20260503222848 85 254 5.2 6.1 0.00 0.00 0.00 30 1011.3
20260503222347 85 303 2.6 4.3 0.00 0.00 0.00 30 1011.0
20260503221844 85 285 2.6 3.5 0.00 0.00 0.00 31 1011.3
20260503221343 84 208 1.7 6.1 0.00 0.00 0.00 27 1011.3
20260503220838 85 297 2.6 5.2 0.00 0.00 0.00 29 1011.4
20260503220336 85 232 3.5 4.3 0.00 0.00 0.00 27 1011.4
20260503215832 84 198 2.6 6.1 0.00 0.00 0.00 28 1011.5
20260503215329 84 280 2.6 7.8 0.00 0.00 0.00 31 1011.7
20260503214827 84 315 2.6 4.3 0.00 0.00 0.00 28 1011.5
20260503214324 84 215 1.7 6.1 0.00 0.00 0.00 28 1011.6
20260503213822 83 241 1.7 6.1 0.00 0.00 0.00 29 1011.8
20260503213319 83 281 0.0 9.6 0.00 0.00 0.00 30 1011.7
20260503212816 84 231 1.7 3.5 0.00 0.00 0.00 31 1011.8
20260503212314 83 215 0.9 2.6 0.00 0.00 0.00 28 1011.9
20260503211811 83 228 4.3 4.3 0.00 0.00 0.00 30 1011.8
20260503211308 82 157 2.6 4.3 0.00 0.00 0.00 29 1011.9
20260503210807 83 118 0.0 3.5 0.00 0.00 0.00 28 1011.9
20260503210306 82 261 4.3 6.1 0.00 0.00 0.00 29 1011.9
20260503205800 81 258 2.6 7.0 0.00 0.00 0.00 30 1012.1
20260503205257 81 265 4.3 4.3 0.00 0.00 0.00 30 1012.4
20260503204753 81 189 2.6 4.3 0.00 0.00 0.00 29 1012.4
20260503204251 82 227 1.7 10.4 0.00 0.00 0.00 29 1012.4
20260503203749 82 273 2.6 4.3 0.00 0.00 0.00 31 1012.6
20260503203246 81 201 3.5 4.3 0.00 0.00 0.00 30 1012.7
20260503202743 81 212 3.5 5.2 0.00 0.00 0.00 30 1012.6
20260503202241 81 236 1.7 7.0 0.00 0.00 0.00 30 1012.7
20260503201738 80 19 3.5 7.0 0.00 0.00 0.00 32 1012.7
20260503201235 80 263 5.2 8.7 0.00 0.00 0.00 33 1012.8
20260503200732 80 299 1.7 4.3 0.00 0.00 0.00 31 1012.9
20260503200228 81 172 3.5 5.2 0.00 0.00 0.00 31 1012.9
20260503195725 81 268 3.5 6.1 0.00 0.00 0.00 33 1013.0
20260503195222 80 225 2.6 7.0 0.00 0.00 0.00 31 1012.9
20260503194720 80 190 4.3 5.2 0.00 0.00 0.00 30 1012.9
20260503194215 80 169 2.6 7.0 0.00 0.00 0.00 32 1013.1
20260503193711 80 235 2.6 7.8 0.00 0.00 0.00 31 1013.3
20260503193207 80 232 2.6 4.3 0.00 0.00 0.00 35 1013.0